Location: Tel Aviv
(32.0670°N, 34.7670°E)
Time: 18:51:50
(UTC+03:00)

Vanguard 2 Rocket - Pass Details

Date: 01 February 2022
Orbit: 553 x 3323 km, 32.9° (Epoch: 24 May)

Event Time Altitude Azimuth Distance (km) Brightness Sun altitude
Exits shadow 05:07:33 23° 279° (W) 4,839 9.9 -18.7°
Maximum altitude 05:21:25 63° 209° (SSW) 3,569 9.7 -15.8°
Drops below altitude 10° 05:40:25 10° 133° (SE) 5,811 12.0 -11.9°
Sets 05:44:28 0° 130° (SE) 6,579 12.5 -11.0°
